Location: Göttingen
(51.5413°N, 9.9158°E)
Time: 22:42:26
(UTC+02:00)

NOAA 18 - Visible Passes

Search period start: 26 June 2022 00:00
Search period end: 06 July 2022 00:00
Orbit: 840 x 859 km, 98.9° (Epoch: 26 June)

Date Brightness Start Highest point End Pass type
(mag) Time Alt. Az. Time Alt. Az. Time Alt. Az.
26 Jun 7.1 00:11:17 10° SW 00:15:25 21° W 00:19:35 10° NW visible
26 Jun 5.5 22:16:46 10° SE 22:22:10 60° ENE 22:27:38 10° N visible
26 Jun 6.9 23:58:40 10° SSW 00:03:13 26° W 00:07:50 10° NW visible
27 Jun 6.6 23:46:11 10° SSW 23:51:03 32° W 23:56:00 10° NNW visible
28 Jun 6.3 23:33:47 10° SSW 23:38:55 39° W 23:44:06 10° NNW visible
29 Jun 6.0 23:21:29 10° S 23:26:48 48° W 23:32:10 10° NNW visible
30 Jun 5.7 23:09:16 10° S 23:14:41 59° WSW 23:20:11 10° NNW visible
01 Jul 7.8 00:56:16 10° W 00:56:34 10° W 00:56:51 10° WNW visible
01 Jul 5.4 22:57:06 10° S 23:02:36 72° WSW 23:08:11 10° NNW visible
02 Jul 7.5 00:41:49 10° WSW 00:44:17 13° W 00:46:45 10° WNW visible
02 Jul 5.3 22:45:01 10° SSE 22:50:33 87° WSW 22:56:09 10° NNW visible
03 Jul 7.4 00:28:40 10° SW 00:32:02 16° W 00:35:25 10° NW visible
03 Jul 5.3 22:33:00 10° SSE 22:38:31 78° ENE 22:44:05 10° NNW visible
04 Jul 7.2 00:15:49 10° SW 00:19:49 20° W 00:23:50 10° NW visible
04 Jul 5.4 22:21:03 10° SSE 22:26:29 64° ENE 22:32:00 10° N visible
05 Jul 6.9 00:03:09 10° SW 00:07:36 25° W 00:12:06 10° NW visible
